RH
16 17 17 17 18 19 20 21 21 22 21 20 20 21 22 23 24 25 27 28 28 29 30 29 29 29 29 32 36 37 35 34 34 34 36 38 36 33 30 30 33 35
15 16 16 16 16 17 18 19 19 19 19 19 19 19 20 22 23 24 25 26 28 29 29 29 30 30 29 28 30 32 32 32 32 33 36 38 40 39 37 35 36 37
15 14 15 15 16 16 17 17 17 18 18 17 18 19 20 20 22 24 25 25 27 28 28 28 29 30 31 29 27 28 29 30 32 34 35 38 39 41 39 37 37 37
17 15 14 14 14 15 16 16 16 16 16 17 17 18 19 20 20 22 24 25 26 29 29 28 28 29 30 30 30 29 29 30 32 33 33 34 36 38 38 38 38 37
19 17 16 14 13 13 14 15 15 15 15 15 16 16 18 20 21 21 22 23 25 28 31 29 27 28 28 29 31 33 33 31 30 31 31 31 33 34 36 37 38 38
21 19 18 17 15 13 13 14 14 14 15 15 15 16 17 19 21 22 21 21 22 24 28 30 29 28 28 29 31 33 33 32 31 31 30 30 31 32 34 36 36 38
22 20 19 18 17 16 15 14 14 14 15 15 15 15 17 19 21 21 21 21 21 21 24 27 28 28 28 30 31 31 31 31 32 32 31 31 31 31 32 33 35 37
24 22 20 19 18 18 17 15 15 14 14 14 15 15 16 18 20 20 21 22 22 21 21 24 25 27 28 29 28 29 28 29 29 31 33 33 32 32 30 31 33 34
26 23 21 20 19 19 18 18 17 16 15 15 15 16 16 18 19 19 19 21 22 21 21 22 23 24 25 26 25 24 24 25 26 27 29 31 32 33 31 31 32 32
27 25 22 21 20 19 18 19 19 18 17 17 17 17 17 18 19 19 19 20 20 20 20 21 22 22 23 23 22 22 22 22 22 23 24 26 27 28 30 30 30 30
28 27 24 21 20 19 19 20 20 20 20 19 18 19 18 18 20 19 19 19 19 18 17 18 19 21 22 22 21 20 20 20 20 21 22 23 23 24 26 27 27 27
29 27 25 21 19 19 19 20 21 21 21 21 20 20 20 20 20 20 19 18 18 17 16 16 16 17 20 21 21 19 18 18 18 19 20 22 22 23 24 24 23 24
29 27 25 21 19 18 18 20 21 21 21 22 21 21 22 22 21 21 21 19 18 17 16 15 15 15 17 19 19 17 16 16 16 18 20 20 21 22 23 23 22 20
28 27 25 23 20 19 18 18 19 20 21 22 22 22 23 23 21 21 21 20 18 17 16 16 16 16 16 17 17 16 15 15 16 16 18 20 21 21 22 22 20 18
30 28 27 25 23 20 19 18 18 19 21 21 22 23 23 23 23 22 23 22 19 18 18 18 18 17 16 16 17 16 16 15 15 16 16 18 19 20 21 21 20 18
34 31 29 27 25 22 20 19 19 19 21 21 22 22 22 23 24 24 24 23 21 19 19 19 20 19 18 17 17 17 17 16 16 16 16 17 18 18 20 21 20 18
41 37 33 30 27 23 21 20 19 20 20 21 21 22 23 23 24 25 25 25 23 21 20 20 20 20 19 17 16 17 18 17 17 16 16 17 16 17 19 20 19 18
47 43 40 36 32 28 24 21 21 20 21 21 22 22 23 24 24 25 24 25 25 24 22 20 20 19 18 17 16 16 17 17 17 17 17 17 16 16 17 19 20 19
52 48 44 41 37 34 29 25 23 22 22 22 22 22 23 24 24 24 25 25 26 26 24 22 20 19 18 18 16 15 16 17 18 18 17 17 16 15 17 19 20 20
55 51 47 44 41 38 34 29 27 25 24 24 23 23 23 23 23 23 24 25 25 26 26 24 21 19 18 18 16 15 15 16 17 18 18 17 16 14 15 18 19 19
56 54 51 46 43 41 38 34 31 29 28 26 26 25 24 23 23 23 23 24 25 26 26 26 23 21 19 18 17 16 16 16 17 18 18 18 16 15 14 16 18 19
54 55 53 49 46 43 40 38 36 33 32 31 28 27 25 24 24 24 23 23 24 25 26 26 25 23 21 19 17 17 17 18 19 19 20 19 17 16 14 14 16 18
51 53 53 51 49 46 43 41 39 37 36 35 33 30 28 25 24 24 24 23 23 23 24 25 25 25 23 21 18 18 18 20 20 21 21 20 18 16 15 14 14 16
50 51 52 52 50 48 47 45 43 40 38 37 37 34 30 27 25 25 24 23 22 22 22 23 24 24 24 23 20 19 20 20 20 21 21 20 18 17 16 15 14 15
51 51 51 51 50 49 48 48 47 45 42 40 39 38 36 32 29 26 24 24 23 22 21 21 22 23 23 24 23 21 21 20 20 21 21 20 18 17 16 16 15 15
51 49 49 49 49 50 50 50 50 49 47 45 42 41 39 38 35 31 27 25 24 23 22 21 21 22 23 24 23 23 22 21 21 21 21 19 18 17 15 14 14 14